Regional Weather Roundup
Issued by NWS

Home | Current Version | Previous Version | Text Only | Print | Product List | Glossary Off
Versions: 1 2 3 4 5 6 7 8 9 10 11 12 13 14 15 16 17 18 19 20 21 22 23 24 25 26 27 28 29 30 31 32 33 34 35 36 37 38 39 40 41 42 43 44 45 46 47 48 49 50

000
ASUS45 KTFX 230310
RWRMT
MONTANA REGIONAL WEATHER ROUNDUP
NATIONAL WEATHER SERVICE GREAT FALLS MT
900 PM MDT THU JUN 22 2017

NOTE: "FAIR" INDICATES FEW OR NO CLOUDS BELOW 12000 FEET WITH NO
SIGNIFICANT WEATHER AND/OR OBSTRUCTIONS TO VISIBILITY.

MTZ001>007-043-230400-
WEST OF THE DIVIDE

CITY           SKY/WX    TMP DP  RH WIND       PRES   REMARKS
KALISPELL      PTCLDY    66  38  35 CALM      30.17S
MISSOULA       CLEAR     66  33  29 N7        30.18R
BUTTE          CLEAR     60  23  24 NW13G21   30.24R
MULLAN PASS    CLEAR     53  29  39 CALM      30.30R
ANACONDA         N/A     55  28  35 N7        30.23R
DEER LODGE       N/A     57  34  41 CALM      30.25R
EUREKA           N/A     70  32  24 MISG      30.17R
$$

MTZ008-052>055-230400-
SOUTHWEST MONTANA

CITY           SKY/WX    TMP DP  RH WIND       PRES   REMARKS
BOZEMAN        CLOUDY    59  35  40 N7        30.22R
DILLON         CLEAR     59  29  31 NE12      30.20R
W YELLOWSTONE  CLEAR     57  25  28 N14G22    30.22R
ENNIS          CLEAR     57  28  33 N17       30.26R
THREE FORKS      N/A     61  31  32 N8        30.20R
$$

MTZ009-010-012-014-046-048-049-054-230400-
EAST SLOPES AND CENTRAL MONTANA

CITY           SKY/WX    TMP DP  RH WIND       PRES   REMARKS
CUT BANK       PTCLDY    54  39  57 NE10      30.24R
GREAT FALLS    PTCLDY    55  37  50 N6        30.26R
MALMSTROM AFB  CLEAR     54  41  62 S7        30.25S
HELENA         CLEAR     59  38  45 NW5       30.22F
CHOTEAU          N/A     55  39  54 E5        30.27R
FAIRFIELD        N/A     56  37  47 CALM      30.25R
$$

MTZ011-013-016-021-045-047-050-051-230400-
NORTH CENTRAL MONTANA

CITY           SKY/WX    TMP DP  RH WIND       PRES   REMARKS
HAVRE          PTCLDY    55  36  48 NW6       30.21R
LEWISTOWN      PTCLDY    52  35  52 NW14G20   30.25R
N BAR RANCH    MOCLDY    50  36  57 NW17G28   30.24R
CHINOOK          N/A     55  37  50 NW8       30.19R
FORT BENTON      N/A     59  37  44 CALM      30.25R
GEYSER           N/A     52  36  55 NW5       30.26R
JUDITH GAP     MOCLDY    49  38  65 N25       30.22R
$$

MTZ017>020-022>027-061-062-230400-
NORTHEAST MONTANA

CITY           SKY/WX    TMP DP  RH WIND       PRES   REMARKS
GLASGOW        CLOUDY    55  44  66 NW20      30.11R
JORDAN           N/A     57  39  51 NW24G32   30.14R
SIDNEY         CLOUDY    57  47  69 NW24G33   30.01R
WOLF POINT     CLOUDY    57  45  64 NW20G33   30.09R
MALTA          CLEAR     57  39  51 NW13G23   30.15R
PLENTYWOOD       N/A     52  50  93 NW26      29.98R
POPLAR           N/A     54  46  76 NW17G24   30.06R
$$

MTZ028>42-056>058-230400-
SOUTHCENTRAL AND SOUTHEAST MONTANA

CITY           SKY/WX    TMP DP  RH WIND       PRES   REMARKS
BAKER          CLEAR     54  42  64 NW24G35   30.06R
BILLINGS       MOCLDY    60  28  29 NE14G22   30.21R
LIVINGSTON     CLOUDY    58  35  42 E17       30.23R
MILES CITY     CLEAR     58  39  49 NW25G35   30.12R
BIG TIMBER     CLOUDY    55  34  44 NE6G12    30.29R
FORSYTH          N/A     55  39  54 NW16G24   30.15R
ROUNDUP          N/A     55  34  45 NW10      30.10R
$$

REGIONAL REPORTS...DAKOTAS

CITY           SKY/WX    TMP DP  RH WIND       PRES   REMARKS
WILLISTON      LGT RAIN  56  52  86 NW24G40   29.97R
MINOT          CLOUDY    60  50  69 W22       29.81R
DICKINSON      CLEAR     55  42  61 NW20G29   29.95R
BEACH          CLOUDY    54  45  71 NW28G37   30.06R
CROSBY         CLOUDY    54  54 100 NW23G31   29.93R
TIOGA          RAIN      54  54 100 NW30G43   29.93R
WATFORD CITY   CLOUDY    55  54  94 NW16G24   29.95R
BISMARCK       MOCLDY    65  41  41 NW21G29   29.87R
GRAND FORKS    PTCLDY    64  45  49 W10       29.68S
FARGO          CLEAR     65  39  38 W9        29.72R
BUFFALO SD       N/A     60  36  40 NW29G37   29.97R
RAPID CITY     CLEAR     64  34  32 N16       30.00R
$$

REGIONAL REPORTS...WYOMING/IDAHO/WASHINGTON

CITY           SKY/WX    TMP DP  RH WIND       PRES   REMARKS
GILLETTE       CLOUDY    63  30  28 N17G26    30.10R
SHERIDAN       CLOUDY    61  31  32 N17G23    30.15R
BUFFALO WY     MOCLDY    59  33  37 N12G23    30.16R
CODY           CLEAR     59  26  28 N17G29    30.21R
YELLOWSTONE LA   N/A     50  26  39 VRB5      30.27R
IDAHO FALLS    CLEAR     71  37  28 S8        30.07R
SALMON         CLEAR     64  25  22 N12G18    30.14R
BOISE          CLEAR     77  28  16 NW16      30.07R
SPOKANE        PTCLDY    74  27  17 N5        30.19S
$$

REGIONAL REPORTS...ALBERTA

CITY           SKY/WX    TMP DP  RH WIND       PRES   REMARKS
EDMONTON       CLEAR     57  37  47 N7        30.18S
CALGARY        MOCLDY    57  32  38 NE13      30.23R
LETHBRIDGE     PTCLDY    55  41  58 NE6       30.23R
MEDICINE HAT   PTCLDY    55  37  50 NW12G17   30.20R
MILK RIVER       N/A     55  39  54 N5          N/A
$$

REGIONAL REPORTS...SASKATCHEWAN

CITY           SKY/WX    TMP DP  RH WIND       PRES   REMARKS
SWIFT CURRENT  CLOUDY    50  41  71 NW18G26   30.09R
REGINA         CLOUDY    52  45  76 NW24G33   29.98R
SASKATOON      MOCLDY    54  39  58 NW14G22   30.05R
CYPRESS HILLS    N/A     45  36  70 NW9G17      N/A
ROCKGLEN         N/A     48  43  81 NW17G26     N/A
$$



USA.gov is the U.S. government's official web portal to all federal, state and local government web resources and services.